SAA9280 FAOR-YPPH

Flight info

Callsign SAA9280
Flight time N/A
Altitude 37000
Route EXOBI3B EXOBI DCT EGSOX DCT 31S040E 33S045E 35S051E DCT RAXES UT451 UPNEK/N0446F390 UT451 SUNKI DCT 38S082E 38S089E 37S096E 35S102E/N0455F410 34S109E DCT KAGMI
Aircraft A343/H-SDE2E3FGHIJ4J5M1RWXY/LB1D1

Departure

Time 2026-05-06 05:32
Airport O.R. Tambo International Airport (FAOR)

Arrival

Time N/A
Airport Perth International Airport (YPPH)
Time Latitude Longitude Altitude Speed Heading
2026-05-06 05:07 -26.12928 28.23655 5549 ft 0 kts 186°
2026-05-06 05:21 -26.12909 28.23657 5551 ft 4 kts 186°
2026-05-06 05:22 -26.12882 28.23661 5551 ft 4 kts 186°
2026-05-06 05:22 -26.12857 28.23664 5551 ft 4 kts 180°
2026-05-06 05:22 -26.12836 28.23662 5549 ft 4 kts 137°
2026-05-06 05:22 -26.12824 28.23643 5550 ft 4 kts 100°
2026-05-06 05:23 -26.12821 28.23620 5550 ft 4 kts 96°
2026-05-06 05:23 -26.12819 28.23597 5549 ft 0 kts 96°
2026-05-06 05:25 -26.12821 28.23611 5550 ft 4 kts 96°
2026-05-06 05:26 -26.12824 28.23643 5550 ft 4 kts 96°
2026-05-06 05:26 -26.12827 28.23677 5547 ft 4 kts 96°
2026-05-06 05:26 -26.12831 28.23714 5551 ft 6 kts 97°
2026-05-06 05:26 -26.12822 28.23784 5548 ft 13 kts 58°
2026-05-06 05:27 -26.12728 28.23822 5548 ft 17 kts 17°
2026-05-06 05:27 -26.12604 28.23861 5544 ft 21 kts 15°
2026-05-06 05:27 -26.12444 28.23913 5543 ft 25 kts 16°
2026-05-06 05:27 -26.12278 28.23965 5541 ft 25 kts 14°
2026-05-06 05:28 -26.12114 28.24014 5535 ft 24 kts 16°
2026-05-06 05:28 -26.11957 28.24064 5532 ft 23 kts 16°
2026-05-06 05:28 -26.11800 28.24116 5528 ft 23 kts 16°
2026-05-06 05:28 -26.11649 28.24165 5527 ft 22 kts 15°
2026-05-06 05:29 -26.11489 28.24213 5526 ft 26 kts 14°
2026-05-06 05:29 -26.11312 28.24265 5525 ft 26 kts 15°
2026-05-06 05:29 -26.11139 28.24321 5518 ft 26 kts 15°
2026-05-06 05:29 -26.10967 28.24370 5516 ft 25 kts 12°
2026-05-06 05:30 -26.10807 28.24412 5512 ft 19 kts 30°
2026-05-06 05:30 -26.10794 28.24525 5511 ft 15 kts 105°
2026-05-06 05:30 -26.10849 28.24600 5510 ft 12 kts 171°
2026-05-06 05:30 -26.10940 28.24580 5512 ft 23 kts 197°
2026-05-06 05:31 -26.11305 28.24468 5524 ft 86 kts 196°
2026-05-06 05:31 -26.12061 28.24233 5531 ft 137 kts 195°
2026-05-06 05:31 -26.13110 28.23908 5548 ft 173 kts 195°
2026-05-06 05:31 -26.14304 28.23531 5701 ft 182 kts 196°
2026-05-06 05:32 -26.15512 28.23192 6428 ft 172 kts 195°
2026-05-06 05:32 -26.16714 28.22900 6648 ft 195 kts 193°
2026-05-06 05:32 -26.18126 28.22559 6618 ft 220 kts 195°
2026-05-06 05:32 -26.19674 28.22130 6623 ft 238 kts 197°
2026-05-06 05:33 -26.21318 28.21630 6635 ft 250 kts 198°
2026-05-06 05:33 -26.23016 28.21084 6635 ft 258 kts 198°
2026-05-06 05:33 -26.24755 28.20503 6656 ft 263 kts 199°
2026-05-06 05:33 -26.26492 28.19917 6671 ft 266 kts 196°
2026-05-06 05:34 -26.28296 28.19934 7271 ft 251 kts 166°
2026-05-06 05:34 -26.29799 28.20968 7576 ft 271 kts 134°
2026-05-06 05:34 -26.30738 28.22826 7975 ft 280 kts 108°
2026-05-06 05:34 -26.31256 28.24943 8450 ft 285 kts 103°
2026-05-06 05:35 -26.31719 28.27126 8864 ft 292 kts 102°
2026-05-06 05:35 -26.32174 28.29353 9290 ft 300 kts 102°
2026-05-06 05:35 -26.32658 28.31723 9499 ft 326 kts 102°
2026-05-06 05:35 -26.33189 28.34235 9885 ft 346 kts 103°
2026-05-06 05:36 -26.33787 28.36929 10336 ft 362 kts 103°
2026-05-06 05:36 -26.34423 28.39673 10744 ft 379 kts 103°
2026-05-06 05:36 -26.35113 28.42576 11211 ft 394 kts 102°
2026-05-06 05:36 -26.35841 28.45580 11667 ft 408 kts 102°
2026-05-06 05:37 -26.36600 28.48676 12164 ft 421 kts 102°
2026-05-06 05:37 -26.37389 28.51871 12606 ft 432 kts 101°
2026-05-06 05:37 -26.38202 28.55144 13027 ft 443 kts 101°
2026-05-06 05:37 -26.39036 28.58501 13462 ft 453 kts 100°
2026-05-06 05:38 -26.39889 28.61915 13969 ft 460 kts 100°
2026-05-06 05:38 -26.40754 28.65382 14455 ft 466 kts 100°
2026-05-06 05:38 -26.41615 28.68841 14981 ft 471 kts 100°
2026-05-06 05:38 -26.42497 28.72377 15543 ft 475 kts 99°
2026-05-06 05:39 -26.43390 28.75947 16164 ft 478 kts 99°
2026-05-06 05:39 -26.44286 28.79500 17040 ft 474 kts 99°
2026-05-06 05:39 -26.45280 28.83035 17573 ft 483 kts 105°
2026-05-06 05:39 -26.46592 28.86516 18146 ft 489 kts 109°
2026-05-06 05:40 -26.47555 28.88812 18491 ft 493 kts 110°
2026-05-06 05:40 -26.49080 28.92265 18947 ft 497 kts 112°
2026-05-06 05:40 -26.50667 28.95713 19418 ft 502 kts 113°
2026-05-06 05:40 -26.52305 28.99170 19870 ft 506 kts 114°
2026-05-06 05:41 -26.54434 29.03863 20468 ft 508 kts 110°
2026-05-06 05:41 -26.55377 29.06257 20767 ft 509 kts 108°
2026-05-06 05:41 -26.56744 29.09922 21207 ft 512 kts 107°
2026-05-06 05:41 -26.58081 29.13626 21636 ft 515 kts 107°
2026-05-06 05:42 -26.59408 29.17362 22069 ft 519 kts 107°
2026-05-06 05:42 -26.60733 29.21128 22501 ft 523 kts 107°
2026-05-06 05:42 -26.62043 29.24874 22919 ft 526 kts 107°
2026-05-06 05:42 -26.63394 29.28747 23332 ft 530 kts 107°
2026-05-06 05:43 -26.64736 29.32596 23729 ft 533 kts 107°
2026-05-06 05:43 -26.66084 29.36460 24109 ft 536 kts 107°
2026-05-06 05:43 -26.67428 29.40316 24475 ft 539 kts 107°
2026-05-06 05:43 -26.68793 29.44232 24845 ft 541 kts 107°
2026-05-06 05:44 -26.70164 29.48167 25221 ft 544 kts 107°
2026-05-06 05:44 -26.71537 29.52111 25579 ft 546 kts 107°
2026-05-06 05:44 -26.72918 29.56081 25964 ft 548 kts 107°
2026-05-06 05:44 -26.74304 29.60066 26323 ft 551 kts 107°
2026-05-06 05:45 -26.75692 29.64066 26704 ft 553 kts 106°
2026-05-06 05:45 -26.77086 29.68085 27051 ft 555 kts 106°
2026-05-06 05:45 -26.78484 29.72121 27402 ft 558 kts 106°
2026-05-06 05:45 -26.79890 29.76180 27758 ft 560 kts 106°
2026-05-06 05:46 -26.81267 29.80165 28095 ft 562 kts 106°
2026-05-06 05:46 -26.82714 29.84356 28440 ft 564 kts 106°
2026-05-06 05:46 -26.84117 29.88421 28758 ft 566 kts 106°
2026-05-06 05:46 -26.85539 29.92545 29078 ft 568 kts 106°
2026-05-06 05:47 -26.86964 29.96680 29554 ft 566 kts 106°
2026-05-06 05:47 -26.88378 30.00787 30019 ft 565 kts 106°
2026-05-06 05:47 -26.89790 30.04891 30413 ft 564 kts 106°
2026-05-06 05:47 -26.91198 30.08986 30803 ft 563 kts 106°
2026-05-06 05:48 -26.92604 30.13079 31180 ft 562 kts 105°
2026-05-06 05:48 -26.94008 30.17172 31564 ft 561 kts 105°
2026-05-06 05:48 -26.95404 30.21248 31949 ft 560 kts 105°
2026-05-06 05:48 -26.96796 30.25322 32342 ft 559 kts 105°
2026-05-06 05:49 -26.98170 30.29342 32706 ft 559 kts 105°
2026-05-06 05:49 -26.99559 30.33414 33077 ft 558 kts 105°
2026-05-06 05:49 -27.00943 30.37478 33452 ft 558 kts 105°
2026-05-06 05:49 -27.02327 30.41547 33836 ft 557 kts 105°
2026-05-06 05:50 -27.03707 30.45606 34161 ft 557 kts 105°
2026-05-06 05:50 -27.05085 30.49674 34468 ft 556 kts 105°
2026-05-06 05:50 -27.06453 30.53723 34778 ft 556 kts 105°
2026-05-06 05:50 -27.07831 30.57806 35085 ft 556 kts 105°
2026-05-06 05:51 -27.09200 30.61867 35377 ft 556 kts 105°
2026-05-06 05:51 -27.10551 30.65879 35662 ft 556 kts 106°
2026-05-06 05:51 -27.11921 30.69948 35937 ft 556 kts 106°
2026-05-06 05:51 -27.13285 30.74006 36207 ft 556 kts 106°
2026-05-06 05:52 -27.14650 30.78069 36471 ft 556 kts 106°
2026-05-06 05:52 -27.16014 30.82125 36717 ft 552 kts 106°
2026-05-06 05:52 -27.17360 30.86126 36853 ft 546 kts 106°
2026-05-06 05:52 -27.18702 30.90125 36898 ft 549 kts 106°
2026-05-06 05:53 -27.21411 30.98227 36927 ft 558 kts 106°
2026-05-06 05:53 -27.24142 31.06403 36923 ft 557 kts 106°
2026-05-06 05:54 -27.26855 31.14524 36927 ft 554 kts 106°
2026-05-06 05:54 -27.29558 31.22640 36917 ft 554 kts 106°
2026-05-06 05:55 -27.32240 31.30716 36905 ft 554 kts 106°
2026-05-06 05:55 -27.34936 31.38858 36882 ft 553 kts 106°
2026-05-06 05:56 -27.37606 31.46927 36890 ft 553 kts 106°
2026-05-06 05:56 -27.40284 31.55044 36889 ft 552 kts 105°
2026-05-06 05:57 -27.42944 31.63127 36884 ft 550 kts 106°
2026-05-06 05:57 -27.45597 31.71212 36884 ft 551 kts 106°
2026-05-06 05:58 -27.48231 31.79261 36877 ft 551 kts 106°
2026-05-06 05:58 -27.50882 31.87372 36879 ft 550 kts 106°
2026-05-06 05:59 -27.53520 31.95465 36871 ft 549 kts 106°
2026-05-06 05:59 -27.56153 32.03554 36877 ft 549 kts 105°
2026-05-06 06:00 -27.58762 32.11586 36865 ft 548 kts 105°
2026-05-06 06:00 -27.61378 32.19668 36867 ft 547 kts 105°
2026-05-06 06:01 -27.63986 32.27741 36862 ft 547 kts 105°
2026-05-06 06:01 -27.66573 32.35766 36858 ft 546 kts 105°
2026-05-06 06:02 -27.69160 32.43808 36856 ft 544 kts 105°
2026-05-06 06:02 -27.71738 32.51843 36852 ft 543 kts 105°
2026-05-06 06:03 -27.74304 32.59859 36858 ft 543 kts 105°
2026-05-06 06:03 -27.76774 32.67584 36849 ft 540 kts 105°
2026-05-06 06:04 -27.79321 32.75569 36857 ft 538 kts 105°
2026-05-06 06:04 -27.81837 32.83480 36852 ft 536 kts 105°
2026-05-06 06:05 -27.84354 32.91414 36851 ft 536 kts 105°
2026-05-06 06:05 -27.86865 32.99348 36850 ft 536 kts 104°
2026-05-06 06:06 -27.89350 33.07216 36851 ft 534 kts 104°
2026-05-06 06:06 -27.91846 33.15135 36844 ft 532 kts 104°
2026-05-06 06:07 -27.94320 33.23006 36846 ft 530 kts 104°
2026-05-06 06:07 -27.96766 33.30805 36842 ft 528 kts 104°
2026-05-06 06:08 -27.99213 33.38631 36848 ft 527 kts 104°
2026-05-06 06:08 -28.01651 33.46448 36849 ft 526 kts 104°
2026-05-06 06:09 -28.04073 33.54238 36854 ft 523 kts 104°
2026-05-06 06:09 -28.06474 33.61973 36857 ft 519 kts 104°
2026-05-06 06:10 -28.08858 33.69675 36862 ft 516 kts 104°
2026-05-06 06:10 -28.11228 33.77344 36859 ft 515 kts 104°
2026-05-06 06:11 -28.13576 33.84961 36858 ft 514 kts 104°
2026-05-06 06:11 -28.15933 33.92621 36861 ft 514 kts 104°
2026-05-06 06:12 -28.18277 34.00259 36858 ft 512 kts 105°
2026-05-06 06:12 -28.20611 34.07879 36860 ft 511 kts 105°
2026-05-06 06:13 -28.22939 34.15507 36866 ft 512 kts 105°
2026-05-06 06:13 -28.25253 34.23100 36867 ft 511 kts 105°
2026-05-06 06:14 -28.27567 34.30710 36867 ft 509 kts 105°
2026-05-06 06:14 -28.29867 34.38278 36867 ft 511 kts 105°
2026-05-06 06:15 -28.32185 34.45924 36868 ft 514 kts 106°
2026-05-06 06:15 -28.34509 34.53612 36869 ft 515 kts 106°
2026-05-06 06:16 -28.36838 34.61322 36874 ft 515 kts 106°
2026-05-06 06:16 -28.39467 34.68892 36873 ft 517 kts 115°
2026-05-06 06:17 -28.42938 34.76016 36873 ft 518 kts 118°
2026-05-06 06:17 -28.46568 34.83100 36879 ft 519 kts 118°
2026-05-06 06:18 -28.50238 34.90176 36878 ft 520 kts 119°
2026-05-06 06:18 -28.53921 34.97260 36884 ft 520 kts 119°
2026-05-06 06:19 -28.57602 35.04343 36885 ft 520 kts 119°
2026-05-06 06:19 -28.61258 35.11387 36884 ft 521 kts 119°
2026-05-06 06:20 -28.64948 35.18507 36889 ft 522 kts 119°
2026-05-06 06:20 -28.68628 35.25625 36889 ft 521 kts 119°
2026-05-06 06:21 -28.72289 35.32716 36891 ft 521 kts 119°
2026-05-06 06:21 -28.75967 35.39849 36893 ft 523 kts 119°
2026-05-06 06:22 -28.79656 35.47017 36896 ft 525 kts 119°
2026-05-06 06:22 -28.83351 35.54215 36899 ft 524 kts 120°
2026-05-06 06:23 -28.87012 35.61356 36901 ft 523 kts 120°
2026-05-06 06:23 -28.90690 35.68541 36906 ft 524 kts 120°
2026-05-06 06:24 -28.94376 35.75753 36910 ft 526 kts 120°
2026-05-06 06:24 -28.98062 35.82978 36913 ft 526 kts 120°
2026-05-06 06:25 -29.01739 35.90198 36914 ft 525 kts 120°
2026-05-06 06:26 -29.07233 36.01006 36920 ft 527 kts 120°
2026-05-06 06:26 -29.10917 36.08267 36920 ft 528 kts 120°
2026-05-06 06:27 -29.14597 36.15533 36921 ft 527 kts 120°
2026-05-06 06:27 -29.18262 36.22783 36926 ft 526 kts 120°
2026-05-06 06:28 -29.21924 36.30039 36930 ft 527 kts 120°
2026-05-06 06:28 -29.24971 36.36087 36932 ft 527 kts 120°
2026-05-06 06:29 -29.28629 36.43360 36936 ft 526 kts 120°
2026-05-06 06:29 -29.32278 36.50625 36937 ft 526 kts 120°
2026-05-06 06:30 -29.35925 36.57902 36938 ft 526 kts 120°
2026-05-06 06:30 -29.40167 36.66382 36939 ft 527 kts 120°
2026-05-06 06:31 -29.43197 36.72447 36941 ft 527 kts 120°
2026-05-06 06:31 -29.46835 36.79744 36939 ft 526 kts 120°
2026-05-06 06:32 -29.50476 36.87058 36940 ft 527 kts 120°
2026-05-06 06:32 -29.54115 36.94382 36946 ft 528 kts 120°
2026-05-06 06:33 -29.57752 37.01719 36946 ft 528 kts 120°
2026-05-06 06:33 -29.61358 37.09004 36947 ft 527 kts 120°
2026-05-06 06:34 -29.64979 37.16333 36949 ft 527 kts 120°
2026-05-06 06:34 -29.68600 37.23676 36951 ft 528 kts 120°
2026-05-06 06:35 -29.72226 37.31040 36951 ft 529 kts 120°
2026-05-06 06:35 -29.75846 37.38410 36953 ft 528 kts 120°
2026-05-06 06:36 -29.79456 37.45770 36956 ft 528 kts 120°
2026-05-06 06:36 -29.83044 37.53101 36955 ft 529 kts 120°
2026-05-06 06:37 -29.86654 37.60492 36954 ft 529 kts 119°
2026-05-06 06:37 -29.90262 37.67889 36960 ft 529 kts 119°
2026-05-06 06:38 -29.93872 37.75303 36961 ft 530 kts 119°
2026-05-06 06:38 -29.97485 37.82739 36958 ft 532 kts 119°
2026-05-06 06:39 -30.01100 37.90195 36961 ft 532 kts 119°
2026-05-06 06:39 -30.04710 37.97653 36961 ft 532 kts 119°
2026-05-06 06:40 -30.08314 38.05114 36960 ft 532 kts 119°
2026-05-06 06:40 -30.11918 38.12587 36963 ft 533 kts 119°
2026-05-06 06:41 -30.15521 38.20076 36965 ft 533 kts 119°
2026-05-06 06:41 -30.19095 38.27519 36967 ft 533 kts 118°
2026-05-06 06:42 -30.22688 38.35014 36969 ft 532 kts 118°
2026-05-06 06:42 -30.26280 38.42523 36972 ft 532 kts 118°
2026-05-06 06:43 -30.29859 38.50020 36972 ft 532 kts 118°
2026-05-06 06:43 -30.33432 38.57520 36977 ft 532 kts 118°
2026-05-06 06:44 -30.37007 38.65038 36978 ft 532 kts 118°
2026-05-06 06:44 -30.40551 38.72504 36979 ft 532 kts 118°
2026-05-06 06:45 -30.44114 38.80026 36977 ft 532 kts 118°
2026-05-06 06:45 -30.47672 38.87550 36982 ft 532 kts 118°
2026-05-06 06:46 -30.51222 38.95073 36986 ft 532 kts 118°
2026-05-06 06:46 -30.54774 39.02614 36986 ft 533 kts 118°
2026-05-06 06:47 -30.58323 39.10164 36991 ft 532 kts 118°
2026-05-06 06:47 -30.61852 39.17686 36991 ft 532 kts 118°
2026-05-06 06:48 -30.65390 39.25240 36991 ft 532 kts 118°
2026-05-06 06:48 -30.68922 39.32799 36996 ft 532 kts 118°
2026-05-06 06:49 -30.72453 39.40371 36999 ft 532 kts 118°
2026-05-06 06:49 -30.75975 39.47937 36986 ft 531 kts 118°
2026-05-06 06:50 -30.79464 39.55448 37005 ft 531 kts 118°
2026-05-06 06:50 -30.82984 39.63043 37006 ft 533 kts 118°
2026-05-06 06:51 -30.86508 39.70661 37015 ft 534 kts 118°
2026-05-06 06:51 -30.90004 39.78234 36998 ft 533 kts 118°
2026-05-06 06:52 -30.93514 39.85853 37021 ft 534 kts 118°
2026-05-06 06:52 -30.97029 39.93506 37010 ft 536 kts 118°
2026-05-06 06:53 -31.00494 40.01213 37015 ft 537 kts 117°
2026-05-06 06:53 -31.03864 40.08985 37016 ft 537 kts 116°
2026-05-06 06:54 -31.07179 40.16720 37015 ft 537 kts 116°
2026-05-06 06:54 -31.10519 40.24551 37021 ft 538 kts 116°
2026-05-06 06:55 -31.13849 40.32377 37023 ft 538 kts 116°
2026-05-06 06:55 -31.17176 40.40218 37025 ft 538 kts 116°
2026-05-06 06:56 -31.20479 40.48023 37031 ft 539 kts 116°
2026-05-06 06:56 -31.23805 40.55899 37031 ft 540 kts 116°
2026-05-06 06:57 -31.27125 40.63775 37028 ft 540 kts 116°
2026-05-06 06:57 -31.30441 40.71659 37031 ft 540 kts 116°
2026-05-06 06:58 -31.33756 40.79559 37037 ft 541 kts 116°
2026-05-06 06:58 -31.37049 40.87426 37034 ft 541 kts 116°
2026-05-06 06:59 -31.40362 40.95357 37040 ft 541 kts 116°
2026-05-06 06:59 -31.43667 41.03282 37040 ft 541 kts 116°
2026-05-06 07:00 -31.46965 41.11207 37046 ft 542 kts 116°
2026-05-06 07:00 -31.50269 41.19163 37040 ft 542 kts 116°
2026-05-06 07:01 -31.53547 41.27074 37040 ft 543 kts 116°
2026-05-06 07:01 -31.56840 41.35038 37049 ft 542 kts 116°
2026-05-06 07:02 -31.60126 41.43002 37051 ft 542 kts 116°
2026-05-06 07:02 -31.63409 41.50976 37049 ft 543 kts 116°
2026-05-06 07:03 -31.66694 41.58975 37049 ft 544 kts 116°
2026-05-06 07:03 -31.69971 41.66971 37046 ft 543 kts 116°
2026-05-06 07:04 -31.73230 41.74939 37052 ft 544 kts 116°
2026-05-06 07:04 -31.76507 41.82973 37055 ft 545 kts 116°
2026-05-06 07:05 -31.79776 41.91008 37053 ft 544 kts 116°
2026-05-06 07:05 -31.83039 41.99049 37058 ft 544 kts 116°
2026-05-06 07:06 -31.86275 42.07035 37058 ft 544 kts 116°
2026-05-06 07:06 -31.89532 42.15091 37061 ft 545 kts 116°
2026-05-06 07:07 -31.92785 42.23156 37065 ft 545 kts 116°
2026-05-06 07:07 -31.96029 42.31216 37062 ft 544 kts 116°
2026-05-06 07:08 -31.99272 42.39291 37061 ft 545 kts 116°
2026-05-06 07:08 -32.02496 42.47338 37062 ft 546 kts 116°
2026-05-06 07:09 -32.05734 42.55441 37069 ft 546 kts 116°
2026-05-06 07:09 -32.08972 42.63560 37066 ft 546 kts 116°
2026-05-06 07:10 -32.12200 42.71673 37070 ft 547 kts 116°
2026-05-06 07:10 -32.15430 42.79807 37074 ft 548 kts 116°
2026-05-06 07:11 -32.18636 42.87903 37077 ft 548 kts 116°
2026-05-06 07:11 -32.21865 42.96074 37078 ft 548 kts 116°
2026-05-06 07:12 -32.25094 43.04265 37077 ft 548 kts 116°
2026-05-06 07:12 -32.28291 43.12396 37077 ft 549 kts 116°
2026-05-06 07:13 -32.31509 43.20595 37079 ft 550 kts 116°
2026-05-06 07:13 -32.34505 43.28249 37081 ft 550 kts 116°
2026-05-06 07:14 -32.37690 43.36407 37085 ft 550 kts 116°
2026-05-06 07:14 -32.40891 43.44627 37086 ft 551 kts 117°
2026-05-06 07:15 -32.44096 43.52875 37086 ft 551 kts 117°
2026-05-06 07:15 -32.47299 43.61137 37091 ft 551 kts 117°
2026-05-06 07:16 -32.49948 43.67988 37091 ft 550 kts 117°
2026-05-06 07:16 -32.53136 43.76248 37092 ft 551 kts 117°
2026-05-06 07:17 -32.56325 43.84523 37090 ft 551 kts 117°
2026-05-06 07:17 -32.59507 43.92800 37094 ft 551 kts 117°
2026-05-06 07:18 -32.62657 44.01020 37097 ft 550 kts 117°
2026-05-06 07:18 -32.65822 44.09299 37102 ft 551 kts 117°
2026-05-06 07:19 -32.68992 44.17609 37110 ft 552 kts 117°
2026-05-06 07:19 -32.72152 44.25913 37120 ft 552 kts 117°
2026-05-06 07:20 -32.75307 44.34226 37111 ft 551 kts 117°
2026-05-06 07:20 -32.78453 44.42531 37107 ft 551 kts 117°
2026-05-06 07:21 -32.81594 44.50842 37111 ft 552 kts 117°
2026-05-06 07:21 -32.84714 44.59121 37113 ft 552 kts 117°
2026-05-06 07:22 -32.87843 44.67451 37113 ft 551 kts 117°
2026-05-06 07:22 -32.90964 44.75774 37110 ft 551 kts 117°
2026-05-06 07:23 -32.94086 44.84119 37122 ft 552 kts 117°
2026-05-06 07:23 -32.97198 44.92466 37120 ft 551 kts 117°
2026-05-06 07:24 -33.00291 45.00812 37119 ft 550 kts 117°
2026-05-06 07:24 -33.03359 45.09183 37122 ft 551 kts 117°
2026-05-06 07:25 -33.06419 45.17570 37124 ft 551 kts 117°
2026-05-06 07:25 -33.09444 45.25892 37128 ft 550 kts 117°
2026-05-06 07:26 -33.12476 45.34256 37136 ft 550 kts 117°
2026-05-06 07:26 -33.15514 45.42654 37121 ft 551 kts 117°
2026-05-06 07:27 -33.18540 45.51048 37123 ft 549 kts 117°
2026-05-06 07:27 -33.21558 45.59437 37149 ft 550 kts 117°
2026-05-06 07:28 -33.24574 45.67839 37131 ft 551 kts 117°
2026-05-06 07:28 -33.29087 45.80457 37136 ft 550 kts 117°
2026-05-06 07:29 -33.31979 45.88571 37140 ft 549 kts 117°
2026-05-06 07:29 -33.34972 45.96984 37140 ft 550 kts 117°
2026-05-06 07:30 -33.37963 46.05417 37143 ft 551 kts 117°
2026-05-06 07:30 -33.40950 46.13859 37141 ft 550 kts 117°
2026-05-06 07:31 -33.43910 46.22249 37145 ft 550 kts 117°
2026-05-06 07:31 -33.46884 46.30698 37148 ft 550 kts 117°
2026-05-06 07:32 -33.49859 46.39172 37151 ft 551 kts 117°
2026-05-06 07:32 -33.52827 46.47646 37152 ft 551 kts 117°
2026-05-06 07:33 -33.55773 46.56083 37150 ft 551 kts 117°
2026-05-06 07:33 -33.58724 46.64553 37148 ft 551 kts 116°
2026-05-06 07:34 -33.61672 46.73041 37149 ft 552 kts 116°
2026-05-06 07:34 -33.64619 46.81546 37149 ft 552 kts 116°
2026-05-06 07:35 -33.67564 46.90068 37152 ft 551 kts 116°
2026-05-06 07:35 -33.70498 46.98584 37159 ft 552 kts 116°
2026-05-06 07:36 -33.73414 47.07067 37158 ft 553 kts 116°
2026-05-06 07:36 -33.76347 47.15620 37159 ft 553 kts 116°
2026-05-06 07:37 -33.79268 47.24169 37156 ft 552 kts 116°
2026-05-06 07:37 -33.82183 47.32719 37157 ft 552 kts 116°
2026-05-06 07:38 -33.84891 47.40686 37156 ft 553 kts 116°
2026-05-06 07:38 -33.87819 47.49252 37215 ft 554 kts 116°
2026-05-06 07:39 -33.89262 47.53494 37436 ft 554 kts 116°
2026-05-06 07:39 -33.90715 47.57794 37780 ft 554 kts 116°
2026-05-06 07:39 -33.92161 47.62090 38075 ft 554 kts 117°
2026-05-06 07:39 -33.93604 47.66394 38402 ft 554 kts 117°
2026-05-06 07:40 -33.95048 47.70703 38707 ft 554 kts 117°
2026-05-06 07:40 -33.96488 47.75005 38940 ft 553 kts 117°
2026-05-06 07:40 -33.97924 47.79301 39062 ft 551 kts 117°
2026-05-06 07:40 -33.99345 47.83548 39113 ft 552 kts 117°
2026-05-06 07:41 -34.02227 47.92171 39151 ft 556 kts 117°
2026-05-06 07:41 -34.05122 48.00852 39161 ft 561 kts 117°
2026-05-06 07:42 -34.08062 48.09671 39162 ft 572 kts 117°
2026-05-06 07:42 -34.11008 48.18550 39163 ft 573 kts 117°
2026-05-06 07:43 -34.13966 48.27501 39166 ft 573 kts 117°
2026-05-06 07:43 -34.16914 48.36453 39160 ft 574 kts 117°
2026-05-06 07:44 -34.19857 48.45419 39161 ft 574 kts 117°
2026-05-06 07:44 -34.22797 48.54395 39164 ft 574 kts 117°
2026-05-06 07:45 -34.25733 48.63387 39163 ft 575 kts 117°
2026-05-06 07:45 -34.28646 48.72329 39165 ft 575 kts 117°
2026-05-06 07:46 -34.31572 48.81340 39164 ft 575 kts 117°
2026-05-06 07:46 -34.34496 48.90369 39160 ft 576 kts 117°
2026-05-06 07:47 -34.37400 48.99359 39165 ft 576 kts 117°
2026-05-06 07:47 -34.40316 49.08410 39166 ft 576 kts 117°
2026-05-06 07:48 -34.43221 49.17460 39163 ft 576 kts 117°
2026-05-06 07:48 -34.46117 49.26510 39164 ft 576 kts 118°
2026-05-06 07:49 -34.49000 49.35549 39166 ft 576 kts 118°
2026-05-06 07:49 -34.51889 49.44628 39165 ft 577 kts 118°
2026-05-06 07:50 -34.54770 49.53708 39163 ft 577 kts 118°
2026-05-06 07:50 -34.57632 49.62755 39161 ft 577 kts 118°
2026-05-06 07:51 -34.60502 49.71850 39151 ft 577 kts 118°
2026-05-06 07:51 -34.63368 49.80957 39154 ft 578 kts 118°
2026-05-06 07:52 -34.66229 49.90080 39157 ft 578 kts 118°
2026-05-06 07:52 -34.69093 49.99235 39157 ft 579 kts 118°
2026-05-06 07:53 -34.71945 50.08386 39160 ft 579 kts 118°
2026-05-06 07:53 -34.74783 50.17514 39158 ft 581 kts 118°
2026-05-06 07:54 -34.77636 50.26727 39155 ft 582 kts 118°
2026-05-06 07:54 -34.80486 50.35956 39156 ft 582 kts 118°
2026-05-06 07:55 -34.83329 50.45198 39150 ft 583 kts 118°
2026-05-06 07:55 -34.86149 50.54397 39149 ft 584 kts 118°
2026-05-06 07:56 -34.88987 50.63683 39148 ft 584 kts 118°
2026-05-06 07:56 -34.91816 50.72967 39145 ft 585 kts 118°
2026-05-06 07:57 -34.94643 50.82276 39143 ft 585 kts 118°
2026-05-06 07:57 -34.97463 50.91591 39131 ft 586 kts 118°
2026-05-06 07:58 -35.00203 51.00909 39133 ft 588 kts 116°
2026-05-06 07:58 -35.02800 51.10385 39132 ft 589 kts 116°
2026-05-06 07:59 -35.05352 51.19908 39133 ft 590 kts 115°
2026-05-06 07:59 -35.07886 51.29446 39131 ft 591 kts 115°
2026-05-06 08:00 -35.10417 51.39012 39129 ft 591 kts 115°
2026-05-06 08:00 -35.12921 51.48507 39122 ft 591 kts 115°
2026-05-06 08:01 -35.15436 51.58085 39121 ft 591 kts 115°
2026-05-06 08:01 -35.17943 51.67664 39116 ft 591 kts 115°
2026-05-06 08:02 -35.20445 51.77258 39118 ft 591 kts 115°
2026-05-06 08:02 -35.22921 51.86786 39119 ft 592 kts 116°
2026-05-06 08:03 -35.25406 51.96383 39107 ft 592 kts 116°
2026-05-06 08:03 -35.27889 52.06003 39104 ft 592 kts 116°
2026-05-06 08:04 -35.30365 52.15624 39107 ft 592 kts 116°
2026-05-06 08:04 -35.32834 52.25249 39095 ft 593 kts 115°
2026-05-06 08:05 -35.35298 52.34893 39092 ft 593 kts 115°
2026-05-06 08:05 -35.37342 52.42916 39091 ft 593 kts 115°
2026-05-06 08:06 -35.39786 52.52541 39091 ft 593 kts 115°
2026-05-06 08:06 -35.42635 52.63809 39088 ft 594 kts 115°
2026-05-06 08:07 -35.45076 52.73506 39082 ft 594 kts 115°
2026-05-06 08:07 -35.47097 52.81563 39081 ft 594 kts 115°
2026-05-06 08:08 -35.49523 52.91265 39071 ft 594 kts 115°
2026-05-06 08:08 -35.51944 53.00986 39071 ft 594 kts 115°
2026-05-06 08:09 -35.54344 53.10661 39068 ft 595 kts 115°
2026-05-06 08:09 -35.56747 53.20384 39068 ft 595 kts 115°
2026-05-06 08:10 -35.59142 53.30114 39063 ft 595 kts 115°
2026-05-06 08:10 -35.61532 53.39861 39061 ft 596 kts 114°
2026-05-06 08:11 -35.63913 53.49610 39053 ft 596 kts 114°
2026-05-06 08:11 -35.66292 53.59383 39050 ft 596 kts 114°
2026-05-06 08:12 -35.68647 53.69098 39045 ft 596 kts 114°
2026-05-06 08:12 -35.71010 53.78887 39030 ft 597 kts 114°
2026-05-06 08:13 -35.73369 53.88697 39031 ft 597 kts 114°
2026-05-06 08:13 -35.75725 53.98533 39031 ft 598 kts 114°
2026-05-06 08:14 -35.78062 54.08329 39032 ft 599 kts 114°
2026-05-06 08:14 -35.80407 54.18190 39030 ft 599 kts 114°
2026-05-06 08:15 -35.82736 54.28026 39020 ft 600 kts 113°
2026-05-06 08:15 -35.85072 54.37930 39012 ft 601 kts 113°
2026-05-06 08:16 -35.87405 54.47861 39013 ft 601 kts 113°
2026-05-06 08:16 -35.89710 54.57713 39007 ft 602 kts 112°
2026-05-06 08:17 -35.92022 54.67638 39004 ft 602 kts 112°
2026-05-06 08:17 -35.94332 54.77591 38999 ft 603 kts 112°
2026-05-06 08:18 -35.96634 54.87557 38994 ft 604 kts 112°
2026-05-06 08:18 -35.98930 54.97547 38985 ft 604 kts 112°
2026-05-06 08:19 -36.01201 55.07467 38986 ft 605 kts 112°
2026-05-06 08:19 -36.03486 55.17493 38982 ft 605 kts 111°
2026-05-06 08:20 -36.05759 55.27516 38975 ft 606 kts 111°
2026-05-06 08:20 -36.08027 55.37552 38975 ft 606 kts 111°
2026-05-06 08:21 -36.10289 55.47605 38966 ft 606 kts 111°
2026-05-06 08:21 -36.12529 55.57608 38961 ft 607 kts 111°
2026-05-06 08:22 -36.14775 55.67680 38959 ft 607 kts 111°
2026-05-06 08:22 -36.17018 55.77785 38954 ft 607 kts 110°
2026-05-06 08:23 -36.19248 55.87873 38950 ft 608 kts 110°
2026-05-06 08:23 -36.21460 55.97929 38950 ft 608 kts 110°
2026-05-06 08:24 -36.23676 56.08046 38944 ft 608 kts 110°
2026-05-06 08:24 -36.25883 56.18165 38942 ft 608 kts 110°
2026-05-06 08:25 -36.28082 56.28294 38935 ft 608 kts 110°
2026-05-06 08:25 -36.30261 56.38377 38934 ft 609 kts 110°
2026-05-06 08:26 -36.32444 56.48529 38931 ft 609 kts 110°
2026-05-06 08:26 -36.34616 56.58677 38925 ft 609 kts 110°
2026-05-06 08:27 -36.36783 56.68853 38925 ft 609 kts 109°
2026-05-06 08:27 -36.38936 56.79016 38915 ft 609 kts 109°
2026-05-06 08:28 -36.41079 56.89187 38910 ft 609 kts 109°
2026-05-06 08:28 -36.43170 56.99319 38910 ft 609 kts 108°
2026-05-06 08:29 -36.45129 57.09576 38905 ft 610 kts 107°
2026-05-06 08:29 -36.47031 57.19853 38899 ft 610 kts 107°
2026-05-06 08:30 -36.48909 57.30134 38899 ft 610 kts 107°
2026-05-06 08:30 -36.50776 57.40430 38895 ft 610 kts 107°
2026-05-06 08:31 -36.52619 57.50656 38896 ft 610 kts 107°
2026-05-06 08:31 -36.54463 57.60942 38884 ft 610 kts 107°
2026-05-06 08:32 -36.56300 57.71238 38879 ft 610 kts 107°
2026-05-06 08:32 -36.58127 57.81534 38875 ft 610 kts 107°
2026-05-06 08:33 -36.59947 57.91853 38871 ft 610 kts 107°
2026-05-06 08:33 -36.61747 58.02119 38870 ft 610 kts 107°
2026-05-06 08:34 -36.64453 58.17642 38861 ft 610 kts 106°
2026-05-06 08:35 -36.66228 58.27897 38856 ft 610 kts 106°
2026-05-06 08:35 -36.68009 58.38240 38854 ft 610 kts 106°
2026-05-06 08:36 -36.69784 58.48610 38846 ft 609 kts 106°
2026-05-06 08:36 -36.71532 58.58878 38839 ft 609 kts 106°
2026-05-06 08:37 -36.73285 58.69215 38839 ft 609 kts 106°
2026-05-06 08:37 -36.75029 58.79562 38833 ft 610 kts 106°
2026-05-06 08:38 -36.76764 58.89911 38825 ft 610 kts 105°
2026-05-06 08:38 -36.78492 59.00278 38821 ft 610 kts 105°
2026-05-06 08:39 -36.80211 59.10648 38815 ft 610 kts 105°
2026-05-06 08:39 -36.81910 59.20962 38813 ft 610 kts 105°
2026-05-06 08:40 -36.83610 59.31337 38806 ft 610 kts 105°
2026-05-06 08:40 -36.85302 59.41720 38802 ft 610 kts 105°
2026-05-06 08:41 -36.86984 59.52113 38794 ft 610 kts 105°
2026-05-06 08:41 -36.88658 59.62510 38797 ft 610 kts 105°
2026-05-06 08:42 -36.90320 59.72899 38787 ft 610 kts 105°
2026-05-06 08:42 -36.91974 59.83292 38781 ft 610 kts 104°
2026-05-06 08:43 -36.93618 59.93688 38777 ft 610 kts 104°
2026-05-06 08:43 -36.95245 60.04042 38778 ft 610 kts 104°
2026-05-06 08:44 -36.96873 60.14459 38768 ft 610 kts 104°
2026-05-06 08:44 -36.98492 60.24882 38775 ft 610 kts 104°
2026-05-06 08:45 -37.00091 60.35247 38760 ft 610 kts 104°
2026-05-06 08:45 -37.01691 60.45682 38752 ft 610 kts 104°
2026-05-06 08:46 -37.03283 60.56124 38750 ft 611 kts 104°
2026-05-06 08:46 -37.04869 60.66592 38742 ft 611 kts 104°
2026-05-06 08:47 -37.06445 60.77049 38739 ft 611 kts 103°
2026-05-06 08:47 -37.08002 60.87456 38736 ft 612 kts 103°
2026-05-06 08:48 -37.09560 60.97933 38732 ft 612 kts 103°
2026-05-06 08:48 -37.11112 61.08439 38729 ft 612 kts 103°
2026-05-06 08:49 -37.12653 61.18929 38721 ft 612 kts 103°
2026-05-06 08:49 -37.14177 61.29372 38718 ft 612 kts 103°
2026-05-06 08:50 -37.15699 61.39875 38715 ft 612 kts 103°
2026-05-06 08:50 -37.17214 61.50401 38718 ft 612 kts 103°
2026-05-06 08:51 -37.18721 61.60920 38708 ft 611 kts 103°
2026-05-06 08:51 -37.20206 61.71370 38698 ft 611 kts 102°
2026-05-06 08:52 -37.21689 61.81874 38691 ft 610 kts 102°
2026-05-06 08:52 -37.23159 61.92353 38692 ft 609 kts 102°
2026-05-06 08:53 -37.24619 62.02838 38690 ft 609 kts 102°
2026-05-06 08:53 -37.26062 62.13261 38684 ft 609 kts 102°
2026-05-06 08:54 -37.27505 62.23758 38676 ft 610 kts 102°
2026-05-06 08:54 -37.28942 62.34281 38669 ft 610 kts 102°
2026-05-06 08:55 -37.30365 62.44772 38666 ft 609 kts 102°
2026-05-06 08:55 -37.31772 62.55212 38657 ft 609 kts 101°
2026-05-06 08:56 -37.33177 62.65722 38657 ft 609 kts 101°
2026-05-06 08:56 -37.34337 62.74452 38658 ft 609 kts 101°
2026-05-06 08:57 -37.35726 62.84957 38652 ft 609 kts 101°
2026-05-06 08:57 -37.37105 62.95467 38650 ft 608 kts 101°
2026-05-06 08:58 -37.38472 63.05971 38649 ft 608 kts 101°
2026-05-06 08:58 -37.39830 63.16473 38637 ft 608 kts 101°
2026-05-06 08:59 -37.41177 63.26971 38631 ft 608 kts 100°
2026-05-06 08:59 -37.42511 63.37446 38630 ft 608 kts 100°
2026-05-06 09:00 -37.43839 63.47952 38632 ft 607 kts 100°
2026-05-06 09:00 -37.45148 63.58399 38625 ft 607 kts 100°
2026-05-06 09:01 -37.46455 63.68900 38620 ft 606 kts 100°
2026-05-06 09:01 -37.47751 63.79388 38620 ft 606 kts 99°
2026-05-06 09:02 -37.49035 63.89860 38608 ft 605 kts 99°
2026-05-06 09:02 -37.50303 64.00273 38606 ft 605 kts 99°
2026-05-06 09:03 -37.51570 64.10750 38598 ft 604 kts 99°
2026-05-06 09:03 -37.52828 64.21240 38594 ft 604 kts 99°
2026-05-06 09:04 -37.54076 64.31723 38596 ft 603 kts 99°
2026-05-06 09:04 -37.55302 64.42117 38592 ft 603 kts 98°
2026-05-06 09:05 -37.56526 64.52573 38588 ft 602 kts 98°
2026-05-06 09:05 -37.57737 64.63009 38584 ft 601 kts 98°
2026-05-06 09:06 -37.58939 64.73459 38581 ft 601 kts 98°
2026-05-06 09:06 -37.60125 64.83892 38577 ft 600 kts 98°
2026-05-06 09:07 -37.61291 64.94260 38575 ft 600 kts 97°
2026-05-06 09:07 -37.62462 65.04689 38571 ft 599 kts 97°
2026-05-06 09:08 -37.63632 65.15100 38570 ft 598 kts 97°
2026-05-06 09:08 -37.64786 65.25436 38568 ft 598 kts 97°
2026-05-06 09:09 -37.65934 65.35823 38569 ft 597 kts 97°
2026-05-06 09:09 -37.67072 65.46214 38578 ft 597 kts 97°
2026-05-06 09:10 -37.68196 65.56596 38572 ft 597 kts 97°
2026-05-06 09:10 -37.69313 65.67001 38577 ft 596 kts 97°
2026-05-06 09:11 -37.70409 65.77300 38569 ft 596 kts 97°
2026-05-06 09:11 -37.71505 65.87688 38571 ft 596 kts 97°
2026-05-06 09:12 -37.72588 65.98065 38574 ft 595 kts 97°
2026-05-06 09:12 -37.73662 66.08428 38573 ft 595 kts 97°
2026-05-06 09:13 -37.74728 66.18825 38574 ft 595 kts 96°
2026-05-06 09:13 -37.75781 66.29183 38574 ft 594 kts 96°
2026-05-06 09:14 -37.76823 66.39537 38572 ft 593 kts 96°
2026-05-06 09:14 -37.77850 66.49823 38581 ft 593 kts 96°
2026-05-06 09:15 -37.78875 66.60192 38584 ft 593 kts 96°
2026-05-06 09:15 -37.79888 66.70536 38589 ft 592 kts 96°
2026-05-06 09:16 -37.80894 66.80889 38594 ft 592 kts 96°
2026-05-06 09:16 -37.81882 66.91157 38600 ft 591 kts 96°
2026-05-06 09:17 -37.82867 67.01490 38597 ft 591 kts 96°
2026-05-06 09:17 -37.83841 67.11809 38598 ft 590 kts 96°
2026-05-06 09:18 -37.84806 67.22116 38604 ft 589 kts 96°
2026-05-06 09:18 -37.85754 67.32347 38604 ft 588 kts 96°
2026-05-06 09:19 -37.86699 67.42640 38610 ft 587 kts 96°
2026-05-06 09:19 -37.87634 67.52913 38609 ft 587 kts 96°
2026-05-06 09:20 -37.88558 67.63176 38614 ft 586 kts 96°
2026-05-06 09:20 -37.89466 67.73361 38617 ft 585 kts 95°
2026-05-06 09:21 -37.90369 67.83587 38623 ft 584 kts 95°
2026-05-06 09:21 -37.91263 67.93823 38626 ft 583 kts 95°
2026-05-06 09:22 -37.92145 68.04026 38626 ft 583 kts 95°
2026-05-06 09:22 -37.93018 68.14235 38627 ft 582 kts 95°
2026-05-06 09:23 -37.93882 68.24433 38634 ft 581 kts 95°
2026-05-06 09:23 -37.94736 68.34614 38632 ft 581 kts 95°
2026-05-06 09:24 -37.95579 68.44782 38638 ft 580 kts 95°
2026-05-06 09:24 -37.96408 68.54874 38647 ft 579 kts 95°
2026-05-06 09:25 -37.97232 68.65017 38644 ft 577 kts 95°
2026-05-06 09:25 -37.98046 68.75130 38648 ft 576 kts 94°
2026-05-06 09:26 -37.98849 68.85211 38648 ft 574 kts 94°
2026-05-06 09:26 -37.99642 68.95282 38651 ft 573 kts 94°
2026-05-06 09:27 -38.00424 69.05331 38655 ft 572 kts 94°
2026-05-06 09:27 -38.01190 69.15297 38658 ft 571 kts 94°
2026-05-06 09:28 -38.01952 69.25312 38657 ft 569 kts 94°
2026-05-06 09:28 -38.02704 69.35308 38662 ft 568 kts 94°
2026-05-06 09:29 -38.03444 69.45275 38672 ft 567 kts 93°
2026-05-06 09:29 -38.04174 69.55225 38664 ft 566 kts 93°
2026-05-06 09:30 -38.04893 69.65144 38668 ft 564 kts 93°
2026-05-06 09:30 -38.05603 69.75051 38668 ft 563 kts 93°
2026-05-06 09:31 -38.06299 69.84880 38678 ft 562 kts 93°
2026-05-06 09:31 -38.06990 69.94766 38678 ft 561 kts 93°
2026-05-06 09:32 -38.07672 70.04636 38679 ft 560 kts 92°
2026-05-06 09:32 -38.08345 70.14491 38683 ft 559 kts 92°
2026-05-06 09:33 -38.09006 70.24321 38682 ft 558 kts 92°
2026-05-06 09:33 -38.09656 70.34077 38689 ft 557 kts 92°
2026-05-06 09:34 -38.10300 70.43875 38690 ft 556 kts 92°
2026-05-06 09:34 -38.10934 70.53661 38694 ft 555 kts 92°
2026-05-06 09:35 -38.11560 70.63444 38694 ft 555 kts 92°
2026-05-06 09:35 -38.12177 70.73201 38701 ft 554 kts 92°
2026-05-06 09:36 -38.12785 70.82954 38702 ft 553 kts 92°
2026-05-06 09:36 -38.13384 70.92695 38705 ft 553 kts 92°
2026-05-06 09:37 -38.13971 71.02379 38710 ft 552 kts 92°
2026-05-06 09:37 -38.14554 71.12111 38710 ft 552 kts 92°
2026-05-06 09:38 -38.15129 71.21850 38710 ft 552 kts 91°
2026-05-06 09:38 -38.15694 71.31584 38714 ft 551 kts 91°
2026-05-06 09:39 -38.16248 71.41254 38708 ft 551 kts 91°
2026-05-06 09:39 -38.16797 71.50971 38714 ft 551 kts 91°
2026-05-06 09:40 -38.17337 71.60684 38725 ft 551 kts 91°
2026-05-06 09:40 -38.18133 71.75264 38718 ft 550 kts 91°
2026-05-06 09:41 -38.18652 71.84931 38720 ft 550 kts 91°
2026-05-06 09:41 -38.19165 71.94652 38739 ft 550 kts 91°
2026-05-06 09:42 -38.19585 72.02731 38731 ft 550 kts 91°
2026-05-06 09:42 -38.20085 72.12459 38736 ft 550 kts 91°
2026-05-06 09:43 -38.20575 72.22170 38740 ft 550 kts 91°
2026-05-06 09:43 -38.21136 72.33475 38745 ft 550 kts 91°
2026-05-06 09:44 -38.21530 72.41557 38744 ft 550 kts 91°
2026-05-06 09:44 -38.21995 72.51266 38747 ft 550 kts 91°
2026-05-06 09:45 -38.22451 72.60927 38747 ft 550 kts 90°
2026-05-06 09:45 -38.22902 72.70650 38753 ft 550 kts 90°
2026-05-06 09:46 -38.23343 72.80363 38755 ft 550 kts 90°
2026-05-06 09:46 -38.23777 72.90080 38757 ft 550 kts 90°
2026-05-06 09:47 -38.24203 72.99789 38760 ft 550 kts 90°
2026-05-06 09:47 -38.24620 73.09505 38763 ft 550 kts 90°
2026-05-06 09:48 -38.25027 73.19150 38763 ft 549 kts 90°
2026-05-06 09:48 -38.25428 73.28862 38768 ft 549 kts 90°
2026-05-06 09:49 -38.25821 73.38585 38767 ft 549 kts 90°
2026-05-06 09:49 -38.26207 73.48288 38775 ft 549 kts 90°
2026-05-06 09:50 -38.26585 73.58001 38781 ft 549 kts 90°
2026-05-06 09:50 -38.26952 73.67633 38778 ft 548 kts 90°
2026-05-06 09:51 -38.27313 73.77346 38784 ft 548 kts 90°
2026-05-06 09:51 -38.27666 73.87050 38784 ft 548 kts 90°
2026-05-06 09:52 -38.28009 73.96685 38788 ft 547 kts 90°
2026-05-06 09:52 -38.28344 74.06385 38788 ft 547 kts 90°
2026-05-06 09:53 -38.28670 74.16057 38788 ft 546 kts 90°
2026-05-06 09:53 -38.28989 74.25721 38791 ft 546 kts 90°
2026-05-06 09:54 -38.29297 74.35316 38797 ft 545 kts 90°
2026-05-06 09:54 -38.29598 74.44958 38797 ft 544 kts 90°
2026-05-06 09:55 -38.29891 74.54580 38802 ft 544 kts 90°
2026-05-06 09:55 -38.30177 74.64222 38802 ft 543 kts 90°
2026-05-06 09:56 -38.30453 74.73762 38805 ft 542 kts 90°
2026-05-06 09:56 -38.30722 74.83371 38811 ft 542 kts 90°
2026-05-06 09:57 -38.30981 74.92953 38811 ft 542 kts 90°
2026-05-06 09:57 -38.31081 75.02530 38812 ft 540 kts 87°
2026-05-06 09:58 -38.30988 75.12099 38814 ft 539 kts 86°